THOR AGENA D R/B, 2825

Orbit data source: Space-Track

THOR AGENA D R/B, 2825 is space debris in LEO originally from a launch on Wed, 31 May 1967 UTC launched from the Air Force Western Test Range (AFWTR). Debris objects in space refer to the collection of defunct objects orbiting the Earth. Examples of debris include non-operational satellites, rocket bodies, and fragments generated from explosions, collisions, or faulty payload assembly.

Loading next visibility...
THOR AGENA D R/B details
Identifier
2825, 1967-053B
Orbit
LEO
Last TLE update16 hours ago
Origin
Flag of USUSAF SSD (US)
ManufacturerLMSC
MissionSpacecraft
Bus & MotorAGENA D, Unknown motor
Mass600 kg wet, 600 kg dry
Launch date (UTC)
1967-05-31 (58 years ago)
Launch vehicleUnknown
Launch site
Air Force Western Test Range (AFWTR)
Object type
Payload
Rocket body
Debris
Shape & HBRCyl + 1 Nozzle, 6.3 m
Radar Cross Section8.306 m², Large (>1 m²)

Expand to show TLE details & history

TLE from 16 hours ago
0 THOR AGENA D R/B
1 02825U 67053B   25047.36102473  .00000151  00000-0  14498-3 0  9998
2 02825  69.9721  36.4407 0004001  82.6986 277.4575 13.97588869 24211
Epoch: 2025-02-16T08:39Z
Definitive object data (Epoch: 2025-02-16T08:39:52.536Z)
Latitude-0.00003°
Longitude119.8766°
Altitude904.092 km
Speed7.4 km/s
True Right ascension02h 25m 45s
True Declination0° 00' 00"
Sunlit
Object was in daylight at TLE epoch
Visualization TLE readout
Latitude15.59585°
Longitude124.29668°
Altitude902.564 km
Speed7.403 km/s
Apparent Right ascension02h 04m 20s
Apparent Declination-44° 31' 05"
Sunlit
Object is in daylight
Visualization observer readout
Local Sidereal Time03:00:37
Azimuth190.013° SSW
Elevation4.622°
Doppler factor1
Orbital elements
Apogee altitude903.113 km
Perigee altitude897.289 km
Semi-major axis7,278.338 km
Eccentricity0.0004001
Inclination69.9721°
RAAN36.4407°
Arg. of periapsis82.6986°
True anomaly277.41204°
Mean anomaly277.4575°
Eccentric anomaly277.43477°
Mean motion3.49538 °/min
BSTAR0.00014498
Orbital period102.99 mins
Loading maneuver chart data...
Loading historical data...
Loading historical data...
Loading historical data...
Loading historical data...
Loading historical data...
Loading historical data...
Loading historical data...

THOR AGENA D R/B Visibility forecast

Observer location: undefined°, undefined

Span
Click to sort rows by Start time (UTC) header in descending order
Start Az.
Max El. time (UTC)
Max El. Az.
Max El.
End time (UTC)
End Az.
10 mins2025-02-17 00:14:09.434Z186.41° SSW2025-02-17 00:19:09.434Z114.079° SE40.778°2025-02-17 00:24:09.434Z33.893° NE
7 mins2025-02-17 02:02:09.434Z270.134° WNW2025-02-17 02:05:09.434Z308.383° NW21.152°2025-02-17 02:09:09.434Z355.322° N
9 mins2025-02-17 09:16:09.434Z357.71° N2025-02-17 09:20:09.434Z51.229° ENE29.705°2025-02-17 09:25:09.434Z118.66° SE
9 mins2025-02-17 11:02:09.434Z309.272° NW2025-02-17 11:06:09.434Z248.209° W30.049°2025-02-17 11:11:09.434Z190.596° SSW
|